AirNav   TITAN Aviation Fuels
 
 633 users online  

4GA0 Hodges Field Airport
Americus, Georgia, USA

GOING TO AMERICUS?


FAA INFORMATION EFFECTIVE 11 AUGUST 2022

Location

FAA Identifier: 4GA0
Lat/Long: 32-07-24.5500N 084-07-47.8800W
32-07.409167N 084-07.798000W
32.1234861,-84.1299667
(estimated)
Elevation: 455 ft. / 139 m
From city: 6 miles NE of AMERICUS, GA
Time zone: UTC -4 (UTC -5 during Standard Time)
Zip code: 31711

Airport Operations

Airport use: Private use. Permission required prior to landing
Activation date: 01/2016
Control tower: no
ARTCC: ATLANTA CENTER
FSS: MACON FLIGHT SERVICE STATION
Attendance: 
Wind indicator: yes
Segmented circle: no

Airport Communications

UNICOM: 122.8
WX AWOS-3 at ACJ (3 nm W): 128.375 (229-928-0934)
WX AWOS-3PT at CKF (20 nm SE): 119.325 (229-276-2669)

Nearby radio navigation aids

VOR radial/distance  VOR name  Freq  Var
PZDr018/29.3PECAN VOR/DME116.1002W
VNAr259/32.6VIENNA VORTAC116.5001E

 
NDB name  Hdg/Dist  Freq  Var  ID
LINDBERGH204/3.324204WLKG .-.. -.- --.
CONEY305/15.640006WOHY --- .... -.--
MONTEZUMA207/15.942604WIZS .. --.. ...

Airport Services

Runway Information

Runway 8/26

Dimensions: 1380 x 200 ft. / 421 x 61 m
Surface: turf
RUNWAY 8  RUNWAY 26
Traffic pattern: rightleft

Airport Ownership and Management from official FAA records

Ownership: Privately-owned
Owner: MCNEILL HODGES
428 NEIL HODGES RD.
ANDERSONVILLE, GA 31711
Phone 229-938-5054
Manager: MCNEILL HODGES
428 NEIL HODGES RD.
ANDERSONVILLE, GA 31711
Phone 229-938-5054

Airport Operational Statistics

Aircraft based on the field: 10
Single engine airplanes: 6
Ultralights: 4
    

Additional Remarks

FOR CD CTC ATLANTA ARTCC AT 770-210-7692.

Instrument Procedures

There are no published instrument procedures at 4GA0.

Some nearby airports with instrument procedures:

KACJ - Jimmy Carter Regional Airport (3 nm W)
53A - Dr. C P Savage Sr. Airport (12 nm NE)
KCKF - Crisp County-Cordele Airport (20 nm SE)
16J - Dawson Municipal Airport (27 nm SW)
6A1 - Butler Municipal Airport (27 nm N)
 
Loc | Ops | Rwys | IFR | FBO | Links
Com | Nav | Svcs | Stats | Notes
Aerial photo
No photo
 
Airport distance calculator
Flying to Hodges Field Airport? Find the distance to fly.

From to 4GA0

Sunrise and sunset
Times for 18-Aug-2022
 Local
(UTC-4)
 Zulu
(UTC)
Morning civil twilight06:3810:38
Sunrise07:0411:04
Sunset20:1700:17
Evening civil twilight20:4300:43

Current date and time
Zulu (UTC)  18-Aug-2022 06:59:22
Local (UTC-4)  18-Aug-2022 02:59:22
 
METAR
KCKF 
20nm SE 
180635Z AUTO 00000KT 10SM OVC095 23/21 A2997 RMK AO2 T02280210
TAF
KABY 
36nm S 
180520Z 1806/1906 00000KT P6SM SCT090 BKN110 FM181100 VRB03KT P6SM VCTS BKN025CB TEMPO 1816/1820 27012G18KT 2SM +TSRA FM182200 31006KT P6SM VCSH SCT040 BKN060
KWRB 
41nm NE 
180000Z 1800/1906 VRB06KT 9999 SCT035 BKN080 QNH2994INS BECMG 1805/1806 VRB06KT 9999 VCSH SCT020 BKN050 QNH2997INS BECMG 1808/1809 09009KT 8000 -SHRA SCT010 BKN030 QNH2997INS BECMG 1817/1818 12015G25KT 4800 -TSRA BKN015CB OVC030 QNH2988INS BECMG 1900/1901 14010G15KT 8000 -SHRA BKN015 OVC030 QNH2990INS TX27/1820Z TN21/1810Z
KMCN 
41nm NE 
180543Z 1806/1906 05003KT P6SM SCT008 FM180700 00000KT P6SM SCT006 BKN025 FM180800 00000KT P6SM SCT005 BKN020 TEMPO 1810/1814 1SM -SHRA BR OVC004 FM181500 VRB03KT P6SM SHRA BKN015 FM182100 04005KT 6SM SHRA BR BKN020 FM182200 05005KT P6SM BKN025
NOTAMs
Click for the latest NOTAMs
NOTAMs are issued by the DoD/FAA and will open in a separate window not controlled by AirNav.

 

 
 

Would you like to see your business listed on this page?

 If your business provides an interesting product or service to pilots, flight crews, aircraft, or users of the Hodges Field Airport, you should consider listing it here.  To start the listing process, click on the button below
 
Add a business
 

Other Pages about Hodges Field Airport

Update a link
 
Copyright © AirNav, LLC. All rights reserved. Privacy Policy  Contact